Regional Weather Roundup
Issued by NWS

Home | Current Version | Previous Version | Text Only | Print | Product List | Glossary Off
Versions: 1 2 3 4 5 6 7 8 9 10 11 12 13 14 15 16 17 18 19 20 21 22 23 24 25 26 27 28 29 30 31 32 33 34 35 36 37 38 39 40 41 42 43 44 45 46 47 48 49 50

000
ASUS43 KMKX 040811
RWRWI

WISCONSIN REGIONAL WEATHER ROUNDUP
NATIONAL WEATHER SERVICE MILWAUKEE/SULLIVAN WI
300 AM CDT MON MAY 04 2015

NOTE: "FAIR" INDICATES FEW OR NO CLOUDS BELOW 12,000 FEET WITH NO
SIGNIFICANT WEATHER AND/OR OBSTRUCTIONS TO VISIBILITY.

WIZ001-002-006>008-014>016-023>028-040900-
NORTHWEST WISCONSIN

CITY           SKY/WX    TMP DP  RH WIND       PRES   REMARKS
SUPERIOR ARPT  CLEAR     51  34  52 N3        30.01R
ASHLAND        PTCLDY    48  35  60 N8        29.99R
HAYWARD        CLEAR     45  40  82 NE3       30.00R
SIREN          CLEAR     50  33  52 N7        30.01R
CUMBERLAND     CLEAR     52  36  54 N13G18    29.99R
RICE LAKE      CLEAR     51  42  70 NW6       29.99S
CHETEK         CLEAR     49  48  98 CALM      29.97S
LADYSMITH      PTCLDY    52  47  84 NW7       29.98S
EAU CLAIRE     PTCLDY    54  49  83 N6        29.94S
MENOMONIE      PTCLDY    54  50  87 NW3       29.96F
NEW RICHMOND   CLEAR     49  43  79 N3        29.99S
OSCEOLA        CLEAR     48  46  92 CALM      30.03R
$$

WIZ003>005-009-010-017-018-040900-
NORTH CENTRAL WISCONSIN

CITY           SKY/WX    TMP DP  RH WIND       PRES   REMARKS
MANITOWISH WTR CLOUDY    52  45  76 N3        29.94S
ARBOR VITAE    CLOUDY    52  46  79 N7        29.93F
WOODRUFF       CLOUDY    52  46  79 N7        29.93F
RHINELANDER    CLOUDY    50  47  89 CALM      29.93S
EAGLE RIVER    CLOUDY    50  50  99 CALM      29.93S
LAND O LAKES   CLOUDY    52  48  86 NW3       29.94S
PHILLIPS       PTCLDY    50  46  87 NW5       29.95R
TOMAHAWK       CLOUDY    49  48  96 CALM      29.94S
MEDFORD        CLOUDY    53  50  90 NW7       29.93S
MERRILL        CLOUDY    52  52  98 N7        29.92R
$$

WIZ029-030-035-036-043>047-040900-
CENTRAL WISCONSIN

CITY           SKY/WX    TMP DP  RH WIND       PRES   REMARKS
WAUSAU         CLOUDY    55  53  93 NW8       29.89R
MOSINEE        CLOUDY    54  54 100 NW6       29.92R
MARSHFIELD     CLOUDY    56  56 100 NW9       29.92R
STEVENS POINT  CLOUDY    55  54  97 NW6       29.91R
WAUPACA        CLOUDY    59  59 100 CALM      29.89R
WAUTOMA        CLOUDY    58  58 100 NW9       29.90R
WISC RAPIDS    CLOUDY    56  54  93 CALM      29.92R FOG
CAMP DOUGLAS   CLOUDY    57  57 100 NW3       29.91S
$$

WIZ011>013-019>022-031-037>040-048>050-040900-
NORTHEAST WISCONSIN

CITY           SKY/WX    TMP DP  RH WIND       PRES   REMARKS
ANTIGO         CLOUDY    52  51  97 CALM      29.90R
SHAWANO        CLOUDY    59  57  92 NW3       29.88S
OCONTO         CLOUDY    57  57 100 SE5       29.86S
STURGEON BAY   CLOUDY    57  54  88 SE8       29.89F
GREEN BAY      CLOUDY    60  57  89 NE3       29.85F
MANITOWOC      LGT RAIN  57  56  96 SW7       29.89R
APPLETON       CLOUDY    59  55  88 N3        29.87R
CLINTONVILLE   CLOUDY    55  55 100 NW3       29.87S FOG
OSHKOSH        LGT RAIN  59  56  89 S7        29.86F
$$

WIZ032>034-041-042-053>061-040900-
SOUTHWEST WISCONSIN

CITY           SKY/WX    TMP DP  RH WIND       PRES   REMARKS
LA CROSSE      CLOUDY    61  58  90 N7        29.92R
SPARTA         CLOUDY    57  56  96 CALM      29.93R
VIROQUA        CLOUDY    55  55 100 NW3       29.92R VSB 3/4
BOSCOBEL       CLOUDY    57  56  96 CALM      29.89F FOG
PRAIRIE DU CHI CLOUDY    57  56  96 CALM      29.90R
PLATTEVILLE    CLOUDY    58  56  96 SE6       29.91S
$$

WIZ056-057-062-063-064-067-068-040900-
SOUTH CENTRAL WISCONSIN

CITY           SKY/WX    TMP DP  RH WIND       PRES   REMARKS
REEDSBURG      CLOUDY    56  56  98 CALM      29.89R
BARABOO/DELLS  NOT AVBL
LONE ROCK      CLOUDY    58  55  90 CALM      29.89S
MINERAL POINT  CLOUDY    59  55  88 SE5       29.90S
MADISON        CLOUDY    59  57  93 S6        29.90F
MIDDLETON      CLOUDY    59  58  96 CALM      29.90S
WATERTOWN      CLOUDY    58  58 100 CALM      29.88F
MONROE         CLOUDY    55  55 100 E6        29.92R
JANESVILLE     CLOUDY    59  55  88 CALM      29.91F
$$

WIZ051-052-058>065-066-070>072-040900-
SOUTHEAST WISCONSIN

CITY           SKY/WX    TMP DP  RH WIND       PRES   REMARKS
MILWAUKEE      CLOUDY    65  54  67 NW10G21   29.89F
WAUKESHA       LGT RAIN  57  54  88 W7        29.89F
MILWAUKEE/TIMM LGT RAIN  61  54  77 N8G17     29.86F
RACINE         CLOUDY    65  53  65 W8        29.91S
BURLINGTON     CLOUDY    58  55  89 NW3       29.90F
KENOSHA        CLOUDY    63  56  78 W9        29.90F
FOND DU LAC    LGT RAIN  59  57  93 S7        29.89S
SHEBOYGAN      LGT RAIN  57  55  93 CALM      29.90R
WEST BEND      RAIN      59  55  88 CALM      29.88F
JUNEAU         CLOUDY    58  56  94 NE5       29.87F
$$

LSZ147-162-040900-
LAKE SUPERIOR

STATION/POSITION TIME  TEMP    WIND        PRES    WAVE
                       AIR SEA DIR/SP/G            HT/PER
                 (UTC) (F)     (DEG/KT/KT) (MB)    (FT/S)
W MID LAKE BUOY  0750   42 35  300/  6/  6 1014.9R   1
DEVILS ISLAND    0800   50     350/ 14/ 15 1015.8R
PORT WING        0700   52     350/  7/ 10 1015.9R
SAXON HARBOR     0700   47        CALM     1014.2
$$

LMZ867-665-643>646-040900-
LAKE MICHIGAN

STATION/POSITION TIME  TEMP    WIND        PRES    WAVE
                       AIR SEA DIR/SP/G            HT/PER
                 (UTC) (F)     (DEG/KT/KT) (MB)    (FT/S)
CHAMBERS ISLAND  0700   54     170/  2/  5 1011.5F
NORTHPORT PIER   0700   55     210/  2/  8 1011.5S
SISTER BAY       0702   56        CALM       N/A
KEWAUNEE LAKESHO 0700   54     180/  5/ 11 1011.8R
SHEBOYGAN LAKESH 0800   54     230/  1/  2 1012.8R
PORT WASHINGTON  0800   53      50/  7/ 11 1012.9F
ATWATER BUOY     0700   60     270/  8/ 10 1013.7R
MILWAUKEE LAKESH 0700   67     280/  9/ 13   N/A
KENOSHA   LAKESH 0800   65     270/  8/ 16 1012.5R
$$

TC  - TEMPERATURE IN CELSIUS
VSB - VISIBILITY IN STATUTE MILES
WCI - WIND CHILL INDEX
HX  - HEAT INDEX




USA.gov is the U.S. government's official web portal to all federal, state and local government web resources and services.